[[{"header":{"parameterUnit":"m.s-1","parameterCategory":2,"la1":30.2991,"la2":30.254,"lo1":-89.0895,"lo2":-89.0444,"dy":0.0017,"dx":0.0017,"nx":28,"ny":28,"refTime":"2025-09-05T09:00:00:Z","depth":"0","parameterNumber":2,"parameterNumberName":"U-component_of_CURRENTS"},"data":[0,0,0,0,0,0,0,0,0,0,0,0,0,0,0,0,0,0,0,0,0,0,0,0,0,0,0,0,0,0,0,0,0,0,0,0,0,0,0,0,0,0,0,0,0,0,0,0,0,0,0,0,0,0,0,0,0,0,0.2114,0.2115,0,0.2162,0.2162,0.2163,0.216,0.2159,0.2159,0.2158,0.2155,0.2156,0.2156,0,0,0,0,0,0,0,0,0,0,0,0,0,0.2012,0.2014,0.2114,0.2115,0.2115,0.2162,0.2162,0.2163,0.216,0.2159,0.2159,0.2158,0.2155,0.2156,0.2156,0,0,0,0,0,0,0,0,0,0,0,0,0,0.2057,0.2015,0.2114,0.212,0.2122,0.2162,0.2162,0.2163,0.216,0.2159,0.2158,0.2158,0.2155,0.2156,0.2157,0.2179,0,0,0.2159,0.2159,0,0,0,0,0,0,0,0,0.2054,0.206,0.2119,0.212,0.2121,0.2155,0.2126,0.2166,0.216,0.2144,0.2158,0.2157,0.2152,0.2153,0.2163,0.2179,0.2178,0.2159,0.2159,0.216,0.216,0,0,0,0,0,0,0,0.2051,0.2058,0.2132,0.212,0.2121,0.2118,0.2124,0.2133,0.2151,0.2146,0.2146,0.2153,0.2152,0.2162,0.2163,0.2178,0.2159,0.2159,0.216,0.216,0.2189,0.2189,0,0,0,0,0,0,0.205,0.2056,0.213,0.2133,0.2086,0.2121,0.2127,0.2144,0.2152,0.2153,0.2154,0.2153,0.2162,0.2162,0.2163,0.2182,0.216,0.216,0.2161,0.2189,0.2189,0.219,0,0,0,0,0,0,0.2047,0.2056,0.2128,0.2096,0.2105,0.2124,0.2143,0.2146,0.2155,0.2159,0.2158,0.216,0.2161,0.2162,0.2171,0.2181,0.2161,0.2161,0.2188,0.2189,0.2189,0.2224,0,0,0,0,0,0,0.2044,0.2055,0.2069,0.2096,0.2107,0.2155,0.2144,0.2147,0.2161,0.216,0.2164,0.2163,0.216,0.217,0.2172,0.2182,0.2162,0.2188,0.2189,0.2189,0.2223,0.2226,0.2229,0,0,0,0,0,0.2041,0.2063,0.207,0.2078,0.2125,0.2156,0.2161,0.217,0.2162,0.2173,0.2172,0.2163,0.2175,0.2171,0.2173,0.2184,0.2188,0.2188,0.2189,0.2221,0.2225,0.2229,0,0,0,0,0,0,0.2031,0.2066,0.2073,0.2107,0.213,0.2156,0.217,0.2173,0.2183,0.2178,0.2174,0.2174,0.2186,0.218,0.2176,0.2192,0.2178,0.2179,0.2201,0.2205,0.2208,0.2247,0.2162,0,0,0,0,0,0.2035,0.2057,0.209,0.2116,0.2129,0.2149,0.2163,0.217,0.2182,0.2186,0.2188,0.2187,0.2193,0.2194,0.2199,0.2212,0.2302,0.2217,0.222,0.2223,0.2255,0.2461,0.2489,0.2192,0.2192,0.2192,0,0,0.2038,0.2061,0.2073,0.2114,0.2133,0.2158,0.2155,0.2179,0.2193,0.2184,0.22,0.2202,0.2199,0.2213,0.2217,0.2208,0.234,0.2224,0.2226,0.2257,0.2466,0.2496,0.2522,0.2193,0.2192,0.2192,0,0,0.2053,0.2077,0.2098,0.2119,0.2151,0.2166,0.2172,0.22,0.2205,0.2226,0.2219,0.2237,0.2237,0.2249,0.225,0.2275,0.2353,0.2259,0.2306,0.2506,0.2534,0.256,0.2663,0.2698,0.2258,0.2258,0.2258,0,0.2059,0.2091,0.2109,0.2135,0.2156,0.2169,0.2197,0.2206,0.2231,0.226,0.2232,0.2293,0.2262,0.2319,0.2302,0.2286,0.2397,0.2292,0.2518,0.2546,0.2572,0.2672,0.271,0.2259,0.2259,0.2259,0.2259,0,0.2087,0.2113,0.2128,0.2164,0.2188,0.2215,0.2235,0.2263,0.2269,0.2293,0.2356,0.2348,0.2406,0.2369,0.233,0.2476,0.2489,0.2507,0.2522,0.2606,0.2702,0.2742,0.2262,0.2261,0.2261,0.226,0,0,0.2113,0.2142,0.2151,0.2179,0.2207,0.2243,0.227,0.2327,0.2397,0.24,0.2515,0.2471,0.2512,0.2517,0.2497,0.2612,0.2825,0.263,0.264,0.2753,0.3242,0.314,0.3173,0.2924,0.2932,0.2938,0.3217,0,0.2136,0.2184,0.219,0.2245,0.2281,0.2305,0.2347,0.2398,0.245,0.2563,0.2579,0.2668,0.2556,0.2615,0.2714,0.2821,0.2942,0.2745,0.3125,0.3134,0.3057,0.3221,0.3106,0.3339,0.3256,0.3263,0.3268,0,0.2171,0.2203,0.2256,0.232,0.2341,0.2376,0.2499,0.254,0.267,0.2725,0.2829,0.2873,0.2993,0.2923,0.3179,0.3079,0.3167,0.323,0.3245,0.318,0.3111,0.3251,0.3415,0.3284,0.3329,0.3324,0.332,0,0.2212,0.2256,0.2304,0.2323,0.2393,0.2441,0.249,0.2603,0.2679,0.2874,0.2982,0.3134,0.3243,0.3413,0.3453,0.3395,0.3757,0.371,0.3694,0.3684,0.3672,0.3647,0.3782,0.3956,0.3956,0.3955,0.3954,0,0.2252,0.2297,0.2333,0.2374,0.2469,0.2498,0.2635,0.2714,0.2863,0.2973,0.3087,0.3214,0.3391,0.356,0.3611,0.3763,0.3905,0.3757,0.3794,0.3665,0.3638,0.3588,0.3506,0.3965,0.3963,0.3961,0.3959,0,0.2312,0.2318,0.2395,0.2468,0.2497,0.2581,0.2699,0.2778,0.2933,0.3103,0.3177,0.3368,0.3576,0.3699,0.397,0.3955,0.4007,0.4122,0.389,0.3892,0.3717,0.3639,0.3725,0.362,0.4208,0.4208,0.4207,0,0.2349,0.2391,0.248,0.25,0.2535,0.2641,0.2685,0.2818,0.2894,0.315,0.3218,0.3478,0.3588,0.3921,0.4015,0.4176,0.401,0.4128,0.3979,0.3741,0.3687,0.3506,0.3397,0.3963,0.3961,0.3959,0.3958,0,0.2423,0.2451,0.2491,0.2547,0.2587,0.2653,0.2728,0.28,0.2937,0.3078,0.3233,0.3362,0.366,0.3781,0.3985,0.4047,0.3916,0.4092,0.3986,0.3631,0.3321,0.3222,0.3662,0.3942,0.3944,0.3945,0.3946,0.3946,0.2451,0.2483,0.2502,0.2553,0.2582,0.2597,0.2624,0.269,0.2798,0.294,0.3134,0.3282,0.3544,0.3815,0.3851,0.3839,0.3799,0.3752,0.3718,0.3584,0.3364,0.3697,0.3914,0.3915,0.3916,0.3917,0.3918,0,0.2426,0.2433,0.2482,0.2494,0.248,0.2533,0.2574,0.256,0.2602,0.2795,0.2932,0.3176,0.3336,0.3504,0.3611,0.3496,0.3355,0.3402,0.3157,0.31,0.3564,0.3426,0.3379,0.3379,0.3379,0.3379,0.3379,0.3379,0.2387,0.2382,0.2403,0.2359,0.2362,0.2303,0.2295,0.2301,0.24,0.2507,0.2639,0.2848,0.3111,0.3333,0.3278,0.3205,0.2933,0.2832,0.2791,0.3126,0.3154,0.3182,0.3035,0.2906,0.2906,0.2223,0.2217,0.2213]},{"header":{"parameterUnit":"m.s-1","parameterCategory":2,"la1":30.2991,"la2":30.254,"lo1":-89.0895,"lo2":-89.0444,"dy":0.0017,"dx":0.0017,"nx":28,"ny":28,"refTime":"2025-09-05T09:00:00:Z","depth":"0","parameterNumber":3,"parameterNumberName":"V-component_of_CURRENTS"},"data":[0,0,0,0,0,0,0,0,0,0,0,0,0,0,0,0,0,0,0,0,0,0,0,0,0,0,0,0,0,0,0,0,0,0,0,0,0,0,0,0,0,0,0,0,0,0,0,0,0,0,0,0,0,0,0,0,0,0,-0.0037,-0.0038,0,-0.0109,-0.011,-0.011,-0.0144,-0.0144,-0.0144,-0.0144,-0.0222,-0.0224,-0.0226,0,0,0,0,0,0,0,0,0,0,0,0,0,0.0007,0.0007,-0.0037,-0.0038,-0.0039,-0.0109,-0.011,-0.011,-0.0144,-0.0144,-0.0144,-0.0145,-0.0222,-0.0224,-0.0226,0,0,0,0,0,0,0,0,0,0,0,0,0,-0.0031,0.0007,-0.0037,-0.0066,-0.0069,-0.0109,-0.011,-0.0111,-0.0144,-0.0144,-0.0144,-0.0145,-0.0221,-0.0224,-0.0227,-0.0242,0,0,-0.0236,-0.0237,0,0,0,0,0,0,0,0,-0.0029,-0.0033,-0.006,-0.0064,-0.0068,-0.0119,-0.0123,-0.0155,-0.0144,-0.0114,-0.0144,-0.0145,-0.0189,-0.0195,-0.0206,-0.0245,-0.0249,-0.0236,-0.0238,-0.0239,-0.024,0,0,0,0,0,0,0,-0.0026,-0.003,-0.0064,-0.0061,-0.0066,-0.0097,-0.0102,-0.0129,-0.0149,-0.0117,-0.012,-0.013,-0.0191,-0.0203,-0.0208,-0.025,-0.0236,-0.0239,-0.024,-0.0242,-0.0331,-0.0332,0,0,0,0,0,0,-0.0017,-0.0027,-0.0062,-0.0066,-0.005,-0.0097,-0.0103,-0.0101,-0.0148,-0.0156,-0.013,-0.0131,-0.0198,-0.0204,-0.0211,-0.0238,-0.0239,-0.0242,-0.0244,-0.033,-0.0331,-0.0332,0,0,0,0,0,0,-0.0016,-0.0019,-0.0059,-0.0051,-0.0058,-0.0098,-0.0096,-0.0103,-0.0114,-0.0159,-0.0166,-0.0135,-0.0198,-0.0207,-0.0237,-0.0241,-0.0243,-0.0246,-0.033,-0.0331,-0.0331,-0.0288,0,0,0,0,0,0,-0.0014,-0.0018,-0.0013,-0.0049,-0.0058,-0.008,-0.0096,-0.0104,-0.0122,-0.0124,-0.0166,-0.0173,-0.0199,-0.0232,-0.024,-0.0245,-0.0248,-0.0329,-0.033,-0.0331,-0.0289,-0.0288,-0.0287,0,0,0,0,0,-0.0012,-0.0001,-0.0012,-0.0017,-0.005,-0.008,-0.0087,-0.0116,-0.0121,-0.0127,-0.0155,-0.0172,-0.0245,-0.0235,-0.0244,-0.025,-0.0328,-0.033,-0.0331,-0.029,-0.0288,-0.0287,0,0,0,0,0,0,0.0029,-0.0004,-0.0017,-0.0014,-0.0046,-0.0087,-0.0092,-0.0112,-0.0139,-0.0139,-0.0176,-0.0186,-0.0216,-0.0241,-0.0228,-0.0281,-0.0291,-0.0294,-0.0257,-0.0255,-0.0254,-0.0178,-0.0251,0,0,0,0,0,0.0039,0.0035,-0.0004,-0.0001,-0.0015,-0.0053,-0.0068,-0.0089,-0.0119,-0.0131,-0.0161,-0.0195,-0.0229,-0.0246,-0.0279,-0.0304,-0.025,-0.0317,-0.0315,-0.0314,-0.026,-0.0166,-0.0149,-0.0336,-0.0336,-0.0336,0,0,0.0057,0.0037,0.0036,0.0006,-0.0018,-0.0034,-0.0061,-0.0081,-0.0092,-0.0135,-0.0153,-0.0191,-0.0235,-0.0265,-0.0281,-0.0285,-0.0243,-0.0316,-0.0314,-0.0259,-0.0165,-0.0146,-0.0129,-0.0337,-0.0337,-0.0337,0,0,0.0082,0.0073,0.0071,0.0048,0.0009,-0.0015,-0.0019,-0.0061,-0.0076,-0.0105,-0.0138,-0.0164,-0.0225,-0.0246,-0.0268,-0.0276,-0.0239,-0.0308,-0.0237,-0.0149,-0.013,-0.0114,-0.0051,-0.0029,-0.0307,-0.0307,-0.0307,0,0.0102,0.0102,0.0066,0.0054,0.005,-0.0003,-0.0,-0.0031,-0.0077,-0.0056,-0.0105,-0.0132,-0.0206,-0.0192,-0.0222,-0.0269,-0.0207,-0.024,-0.014,-0.0122,-0.0105,-0.0044,-0.002,-0.0305,-0.0305,-0.0305,-0.0305,0,0.0119,0.0119,0.0119,0.0092,0.0079,0.0074,0.003,0.0024,-0.0001,-0.0011,0.0002,-0.0074,-0.0061,-0.0132,-0.0194,-0.0126,-0.0119,-0.0145,-0.0128,-0.0082,-0.0024,0.0001,-0.0302,-0.0303,-0.0303,-0.0304,0,0,0.0172,0.0138,0.014,0.0167,0.0106,0.0125,0.0099,0.0109,0.0187,0.01,0.0211,0.0069,0.0083,0.006,-0.0007,0.0019,0.0117,-0.0014,-0.0011,0.0077,0.0327,0.0213,0.0229,0.0131,0.0136,0.014,0.0311,0,0.0201,0.022,0.0178,0.0224,0.0247,0.0207,0.0231,0.0236,0.0244,0.0336,0.0266,0.0331,0.0141,0.0188,0.0173,0.0168,0.0191,0.0074,0.0247,0.0253,0.0171,0.0256,0.0174,0.0312,0.0335,0.0339,0.0342,0,0.0237,0.0256,0.0301,0.0366,0.038,0.0405,0.0513,0.0526,0.0595,0.062,0.0651,0.0635,0.0645,0.0501,0.0517,0.0466,0.0405,0.0366,0.0373,0.0287,0.0186,0.0273,0.0356,0.0146,0.0381,0.0378,0.0375,0,0.0352,0.0361,0.0425,0.0432,0.0474,0.0532,0.0573,0.064,0.0736,0.0854,0.0973,0.0962,0.1032,0.0958,0.0781,0.071,0.0823,0.0726,0.0563,0.0553,0.053,0.0509,0.0464,0.0772,0.0771,0.0771,0.077,0,0.0429,0.0495,0.0507,0.056,0.072,0.0693,0.0892,0.0935,0.1067,0.1232,0.1169,0.1305,0.116,0.1157,0.0962,0.0844,0.097,0.0628,0.0614,0.053,0.0508,0.0357,0.0249,0.0777,0.0776,0.0775,0.0773,0,0.058,0.0551,0.067,0.0742,0.0787,0.0927,0.1096,0.1237,0.1335,0.1562,0.1622,0.1653,0.1628,0.1433,0.1348,0.111,0.0862,0.0897,0.0779,0.0745,0.0354,0.0251,0.0266,0.018,0.08,0.0799,0.0797,0,0.0673,0.0734,0.0851,0.0932,0.0982,0.1158,0.1279,0.1385,0.1528,0.1748,0.1875,0.1931,0.193,0.1746,0.1365,0.1078,0.0858,0.0816,0.0625,0.0365,0.0243,0.0168,0.009,0.0611,0.0609,0.0607,0.0605,0,0.0875,0.0902,0.0985,0.1142,0.1277,0.1445,0.1615,0.1771,0.1896,0.206,0.2229,0.2257,0.2041,0.1712,0.1302,0.1056,0.0647,0.0759,0.0564,0.0165,0.0022,-0.008,0.044,0.0585,0.0587,0.0589,0.059,0.0591,0.1036,0.1131,0.12,0.1358,0.1494,0.1669,0.1822,0.1973,0.2191,0.2389,0.2421,0.2441,0.1991,0.14,0.1081,0.0431,0.0481,0.0208,0.0134,0.0105,-0.0072,0.0372,0.043,0.0431,0.0432,0.0433,0.0433,0,0.1195,0.125,0.1399,0.1547,0.1685,0.174,0.1983,0.2111,0.2314,0.2456,0.2548,0.2262,0.1698,0.1135,0.0281,-0.0127,-0.0259,-0.0326,-0.0439,-0.0467,0.0005,-0.0109,-0.0256,-0.0255,-0.0255,-0.0255,-0.0255,-0.0255,0.1272,0.139,0.1436,0.1652,0.1758,0.1948,0.2075,0.2259,0.2386,0.2475,0.241,0.2355,0.1853,0.0476,-0.0462,-0.0647,-0.0893,-0.0957,-0.1024,-0.0743,-0.07,-0.0658,-0.0792,-0.108,-0.1081,-0.1489,-0.1494,-0.1497]}],[{"header":{"parameterUnit":"m.s-1","parameterCategory":2,"la1":30.2991,"la2":30.254,"lo1":-89.0895,"lo2":-89.0444,"dy":0.0017,"dx":0.0017,"nx":28,"ny":28,"refTime":"2025-09-05T09:00:00:Z","depth":"2","parameterNumber":2,"parameterNumberName":"U-component_of_CURRENTS"},"data":[0,0,0,0,0,0,0,0,0,0,0,0,0,0,0,0,0,0,0,0,0,0,0,0,0,0,0,0,0,0,0,0,0,0,0,0,0,0,0,0,0,0,0,0,0,0,0,0,0,0,0,0,0,0,0,0,0,0,0.2165,0.2165,0,0.2211,0.2211,0.2212,0.2212,0.2211,0.2211,0.221,0.2214,0.2214,0.2215,0,0,0,0,0,0,0,0,0,0,0,0,0,0.2073,0.2074,0.2165,0.2165,0.2166,0.2211,0.2211,0.2212,0.2212,0.2211,0.2211,0.221,0.2214,0.2214,0.2215,0,0,0,0,0,0,0,0,0,0,0,0,0,0.2114,0.2075,0.2164,0.2172,0.2173,0.221,0.2211,0.2212,0.2212,0.2211,0.221,0.221,0.2214,0.2214,0.2215,0.2235,0,0,0.2218,0.2218,0,0,0,0,0,0,0,0,0.2112,0.2117,0.217,0.2172,0.2173,0.2206,0.218,0.2218,0.2212,0.2196,0.221,0.2209,0.2208,0.221,0.2219,0.2235,0.2236,0.2218,0.2218,0.2219,0.2219,0,0,0,0,0,0,0,0.2109,0.2115,0.2182,0.2171,0.2173,0.2172,0.2177,0.2187,0.2204,0.2198,0.2198,0.2205,0.2209,0.2218,0.2219,0.2236,0.2218,0.2219,0.2219,0.2219,0.2254,0.2254,0,0,0,0,0,0,0.2107,0.2113,0.218,0.2183,0.2141,0.2174,0.218,0.2195,0.2205,0.2207,0.2206,0.2205,0.2217,0.2218,0.2219,0.2243,0.2219,0.2219,0.222,0.2253,0.2254,0.2254,0,0,0,0,0,0,0.2105,0.2113,0.2179,0.2149,0.2158,0.2177,0.2194,0.2196,0.2209,0.2212,0.2212,0.2216,0.2217,0.2218,0.2232,0.2243,0.222,0.2221,0.2253,0.2253,0.2254,0.2291,0,0,0,0,0,0,0.2102,0.2112,0.2125,0.2149,0.2159,0.2206,0.2195,0.2198,0.2215,0.2215,0.2221,0.2221,0.2216,0.2231,0.2233,0.2244,0.2221,0.2252,0.2253,0.2254,0.229,0.2293,0.2296,0,0,0,0,0,0.2099,0.2117,0.2125,0.2133,0.2176,0.2207,0.2212,0.2221,0.2216,0.2229,0.223,0.222,0.2237,0.2233,0.2235,0.2246,0.2252,0.2253,0.2254,0.2288,0.2292,0.2296,0,0,0,0,0,0,0.2087,0.212,0.2129,0.2158,0.2183,0.2207,0.222,0.2227,0.224,0.2236,0.2233,0.2234,0.2249,0.2243,0.2238,0.2256,0.224,0.2242,0.2265,0.227,0.2273,0.2301,0.2222,0,0,0,0,0,0.2091,0.2112,0.2144,0.2168,0.2181,0.2202,0.2216,0.2225,0.2239,0.2244,0.2248,0.2249,0.2256,0.2259,0.2264,0.2279,0.2326,0.2284,0.2288,0.2291,0.2314,0.244,0.2458,0.2257,0.2257,0.2257,0,0,0.2089,0.2115,0.2124,0.2167,0.2186,0.221,0.2209,0.2234,0.225,0.2242,0.2262,0.2265,0.2263,0.2279,0.2284,0.2274,0.2359,0.2292,0.2294,0.2317,0.2443,0.2463,0.2481,0.2258,0.2258,0.2258,0,0,0.2094,0.2124,0.2138,0.2167,0.2202,0.2219,0.2228,0.2255,0.2263,0.2287,0.2282,0.2301,0.2304,0.2315,0.2317,0.2345,0.2377,0.2331,0.2371,0.2492,0.2511,0.2528,0.2566,0.2587,0.233,0.233,0.233,0,0.2094,0.2121,0.2148,0.2176,0.2205,0.2223,0.2251,0.2264,0.2291,0.2319,0.2294,0.2347,0.2327,0.2378,0.2367,0.2356,0.241,0.2356,0.2502,0.252,0.2537,0.2573,0.2595,0.2332,0.2331,0.2331,0.2331,0,0.2107,0.2135,0.215,0.2192,0.2228,0.2255,0.2286,0.2316,0.2327,0.2351,0.2407,0.2401,0.2451,0.2423,0.2393,0.2493,0.2483,0.2498,0.25,0.2561,0.2592,0.2615,0.2334,0.2334,0.2333,0.2333,0,0,0.2099,0.2146,0.2155,0.2191,0.2243,0.2284,0.2319,0.2378,0.2442,0.2446,0.2547,0.2514,0.2545,0.255,0.2534,0.2596,0.2715,0.2591,0.2596,0.2642,0.2947,0.2806,0.2817,0.2779,0.2784,0.2788,0.2903,0,0.2104,0.2156,0.2179,0.2244,0.2282,0.233,0.238,0.2441,0.2491,0.2592,0.2605,0.2676,0.2584,0.2627,0.2681,0.2732,0.2786,0.2679,0.287,0.2874,0.2756,0.2843,0.2626,0.2701,0.2926,0.293,0.2932,0,0.2122,0.2157,0.222,0.2307,0.2332,0.2384,0.2519,0.2564,0.2688,0.2734,0.2817,0.2845,0.2921,0.2855,0.2978,0.2926,0.2939,0.2952,0.2959,0.2841,0.2778,0.2686,0.2735,0.2971,0.2968,0.2965,0.2962,0,0.2145,0.2198,0.2259,0.2289,0.2382,0.2445,0.2505,0.2626,0.269,0.2857,0.2934,0.304,0.3109,0.3178,0.3141,0.3109,0.328,0.3256,0.313,0.3117,0.2974,0.294,0.337,0.337,0.337,0.337,0.3369,0,0.2171,0.223,0.2284,0.2332,0.243,0.2497,0.2628,0.2706,0.2846,0.2946,0.3023,0.3112,0.3203,0.3274,0.3252,0.3245,0.3378,0.3162,0.3166,0.2968,0.2934,0.3206,0.3185,0.3374,0.3373,0.3372,0.3371,0,0.2234,0.2253,0.2339,0.2425,0.2454,0.2552,0.2672,0.2754,0.2885,0.3035,0.3088,0.322,0.3301,0.3325,0.3437,0.3364,0.3386,0.3338,0.3044,0.301,0.3113,0.3093,0.3265,0.3262,0.3259,0.3256,0.3254,0,0.2261,0.232,0.2409,0.2436,0.2487,0.2599,0.2655,0.2778,0.2856,0.3063,0.3126,0.3257,0.3264,0.3342,0.3309,0.328,0.3325,0.3038,0.2931,0.313,0.3117,0.3101,0.3085,0.274,0.2734,0.2729,0.2725,0,0.2318,0.2373,0.2412,0.2458,0.2517,0.2593,0.2684,0.2736,0.2882,0.2947,0.3026,0.305,0.3156,0.3034,0.3017,0.2966,0.3031,0.2932,0.3309,0.2775,0.2638,0.2623,0.2625,0.2681,0.2686,0.2689,0.2691,0.2693,0.2323,0.2367,0.2381,0.2428,0.2487,0.2526,0.2551,0.259,0.2623,0.2663,0.2817,0.2761,0.2828,0.2667,0.2599,0.2583,0.2767,0.2645,0.266,0.2681,0.2575,0.2439,0.242,0.2423,0.2425,0.2427,0.2429,0,0.2247,0.2293,0.2324,0.234,0.2351,0.2438,0.25,0.2437,0.2366,0.2431,0.2414,0.2212,0.2147,0.2231,0.2147,0.2138,0.2123,0.205,0.2029,0.2075,0.2115,0.1979,0.1667,0.1664,0.1662,0.1659,0,0,0.2195,0.2176,0.2184,0.2142,0.2192,0.2183,0.2199,0.2093,0.2083,0.1895,0.1861,0.2003,0.2138,0.1853,0.1842,0.175,0.1888,0.168,0.2298,0.2318,0.2355,0.2473,0.2317,0,0,0,0,0]},{"header":{"parameterUnit":"m.s-1","parameterCategory":2,"la1":30.2991,"la2":30.254,"lo1":-89.0895,"lo2":-89.0444,"dy":0.0017,"dx":0.0017,"nx":28,"ny":28,"refTime":"2025-09-05T09:00:00:Z","depth":"2","parameterNumber":3,"parameterNumberName":"V-component_of_CURRENTS"},"data":[0,0,0,0,0,0,0,0,0,0,0,0,0,0,0,0,0,0,0,0,0,0,0,0,0,0,0,0,0,0,0,0,0,0,0,0,0,0,0,0,0,0,0,0,0,0,0,0,0,0,0,0,0,0,0,0,0,0,-0.0231,-0.0232,0,-0.0296,-0.0298,-0.0299,-0.033,-0.0329,-0.0329,-0.0328,-0.0379,-0.0381,-0.0383,0,0,0,0,0,0,0,0,0,0,0,0,0,-0.018,-0.0181,-0.0231,-0.0232,-0.0232,-0.0296,-0.0298,-0.0299,-0.033,-0.0329,-0.0329,-0.0328,-0.0379,-0.0381,-0.0383,0,0,0,0,0,0,0,0,0,0,0,0,0,-0.0223,-0.0181,-0.0231,-0.0252,-0.0255,-0.0296,-0.0298,-0.0299,-0.033,-0.0329,-0.0329,-0.0328,-0.0378,-0.0381,-0.0383,-0.0411,0,0,-0.0391,-0.0392,0,0,0,0,0,0,0,0,-0.022,-0.0225,-0.0249,-0.0251,-0.0253,-0.0301,-0.0298,-0.0334,-0.033,-0.0305,-0.0328,-0.0328,-0.035,-0.0355,-0.0374,-0.0413,-0.0415,-0.0391,-0.0393,-0.0394,-0.0395,0,0,0,0,0,0,0,-0.0217,-0.0223,-0.0261,-0.0249,-0.0252,-0.0274,-0.028,-0.0306,-0.0333,-0.0307,-0.0309,-0.031,-0.0351,-0.0371,-0.0375,-0.0416,-0.0391,-0.0393,-0.0395,-0.0396,-0.0468,-0.0469,0,0,0,0,0,0,-0.02,-0.022,-0.0259,-0.0263,-0.0231,-0.0275,-0.0282,-0.0289,-0.0333,-0.0338,-0.0311,-0.0311,-0.0367,-0.0372,-0.0377,-0.0385,-0.0394,-0.0396,-0.0398,-0.0468,-0.0468,-0.0469,0,0,0,0,0,0,-0.0199,-0.0203,-0.0256,-0.0239,-0.0247,-0.0276,-0.0285,-0.0291,-0.0297,-0.0335,-0.034,-0.0308,-0.0367,-0.0373,-0.039,-0.0388,-0.0397,-0.04,-0.0468,-0.0468,-0.0469,-0.0419,0,0,0,0,0,0,-0.0197,-0.0202,-0.0199,-0.0238,-0.0247,-0.0264,-0.0285,-0.0292,-0.0298,-0.0299,-0.0335,-0.034,-0.0367,-0.0385,-0.0392,-0.0392,-0.0402,-0.0467,-0.0468,-0.0468,-0.042,-0.0418,-0.0416,0,0,0,0,0,-0.0195,-0.0182,-0.0199,-0.0203,-0.0243,-0.0263,-0.027,-0.0291,-0.0298,-0.0296,-0.0323,-0.0338,-0.0395,-0.0388,-0.0395,-0.0396,-0.0467,-0.0468,-0.0468,-0.0421,-0.0418,-0.0416,0,0,0,0,0,0,-0.0156,-0.0186,-0.0204,-0.0202,-0.0225,-0.0266,-0.0261,-0.0282,-0.0304,-0.0302,-0.034,-0.0347,-0.0364,-0.0388,-0.0379,-0.0421,-0.0435,-0.0437,-0.0396,-0.0394,-0.0392,-0.0349,-0.0404,0,0,0,0,0,-0.0147,-0.0146,-0.0184,-0.018,-0.0188,-0.0225,-0.0234,-0.0253,-0.0278,-0.0287,-0.0315,-0.0347,-0.0378,-0.0389,-0.042,-0.0437,-0.0454,-0.0445,-0.0443,-0.0441,-0.0413,-0.0417,-0.0412,-0.0472,-0.0472,-0.0472,0,0,-0.0132,-0.0145,-0.0147,-0.0171,-0.0191,-0.0201,-0.0229,-0.0235,-0.0245,-0.0289,-0.0302,-0.0337,-0.0382,-0.0405,-0.0415,-0.0421,-0.0447,-0.0442,-0.044,-0.0412,-0.0418,-0.0411,-0.0406,-0.0472,-0.0472,-0.0472,0,0,-0.0099,-0.0112,-0.0104,-0.012,-0.0141,-0.0168,-0.0164,-0.0202,-0.0216,-0.024,-0.0277,-0.03,-0.0351,-0.0378,-0.0401,-0.0403,-0.0435,-0.0424,-0.0375,-0.0381,-0.0375,-0.0369,-0.0434,-0.0435,-0.0422,-0.0422,-0.0422,0,-0.0081,-0.0079,-0.0103,-0.0101,-0.0104,-0.0148,-0.0143,-0.017,-0.0209,-0.0212,-0.0232,-0.0294,-0.0335,-0.0355,-0.0363,-0.0395,-0.0419,-0.038,-0.0374,-0.0369,-0.0365,-0.0432,-0.0433,-0.0419,-0.042,-0.042,-0.042,0,-0.005,-0.0048,-0.0038,-0.0055,-0.0063,-0.0061,-0.0099,-0.0108,-0.0133,-0.0161,-0.018,-0.0237,-0.0263,-0.0297,-0.0333,-0.0329,-0.0368,-0.037,-0.0372,-0.0355,-0.0429,-0.0431,-0.0416,-0.0417,-0.0418,-0.0418,0,0,-0.0018,-0.0018,-0.0016,-0.001,-0.0036,-0.0038,-0.0043,-0.0059,-0.0042,-0.0097,-0.0076,-0.0155,-0.0172,-0.0198,-0.0247,-0.026,-0.0284,-0.0295,-0.0297,-0.0345,-0.0334,-0.0336,-0.034,-0.0276,-0.0274,-0.0274,-0.0416,0,0.001,0.0034,0.0024,0.0042,0.0048,0.0023,0.0029,0.0011,-0.0006,0.0002,-0.0056,-0.0059,-0.014,-0.0138,-0.0169,-0.0233,-0.0279,-0.0247,-0.0355,-0.0359,-0.0348,-0.0336,-0.0302,-0.042,-0.0418,-0.0419,-0.0419,0,0.0035,0.0051,0.0084,0.01,0.0104,0.0117,0.014,0.014,0.0134,0.0127,0.0111,0.007,0.0033,-0.0024,-0.0138,-0.011,-0.0217,-0.0284,-0.0291,-0.0297,-0.0361,-0.0429,-0.0425,-0.0423,-0.0423,-0.0423,-0.0422,0,0.0063,0.0088,0.0125,0.0128,0.0142,0.0171,0.0184,0.019,0.0211,0.0231,0.0249,0.0192,0.0168,0.007,-0.0108,-0.0103,-0.0242,-0.0255,-0.0378,-0.0383,-0.0373,-0.0377,-0.0338,-0.0338,-0.0338,-0.0338,-0.0337,0,0.0083,0.011,0.0155,0.0168,0.0233,0.0232,0.0305,0.0308,0.0344,0.0365,0.033,0.0316,0.0198,0.0085,-0.0064,-0.0236,-0.0222,-0.0358,-0.0397,-0.0363,-0.0364,-0.0368,-0.0369,-0.0343,-0.0342,-0.0341,-0.034,0,0.0098,0.0119,0.0169,0.022,0.0245,0.0301,0.0377,0.0413,0.0452,0.0486,0.0498,0.0417,0.0298,0.0133,-0.005,-0.0186,-0.0338,-0.0424,-0.0407,-0.0437,-0.0494,-0.0492,-0.0526,-0.0526,-0.0527,-0.0528,-0.0528,0,0.0102,0.0133,0.0217,0.0251,0.0283,0.0369,0.0409,0.0465,0.0491,0.0513,0.0504,0.0433,0.0358,0.0097,-0.0113,-0.0337,-0.0386,-0.0482,-0.0442,-0.0467,-0.0503,-0.0499,-0.0496,-0.0455,-0.0455,-0.0455,-0.0455,0,0.0098,0.0144,0.0174,0.0256,0.0314,0.0396,0.0454,0.0494,0.0533,0.0595,0.0579,0.0552,0.0329,0.0144,-0.014,-0.0304,-0.0414,-0.0483,-0.0503,-0.0391,-0.0405,-0.0438,-0.0437,-0.0453,-0.0454,-0.0454,-0.0454,-0.0454,0.0085,0.0113,0.0147,0.0228,0.0304,0.0368,0.0439,0.0503,0.0582,0.0667,0.0618,0.0645,0.0404,0.0115,-0.0157,-0.0409,-0.0408,-0.0497,-0.0496,-0.0495,-0.0439,-0.0449,-0.0502,-0.0502,-0.0503,-0.0503,-0.0503,0,0.0029,0.0056,0.0103,0.0176,0.0254,0.0327,0.0417,0.0514,0.0627,0.0723,0.0798,0.0634,0.0437,0.0181,-0.0177,-0.0418,-0.0438,-0.0494,-0.046,-0.046,-0.0461,-0.0401,-0.0455,-0.0456,-0.0456,-0.0456,0,0,-0.0016,-0.0019,0.0003,0.0084,0.0182,0.0308,0.0386,0.056,0.0683,0.0813,0.0886,0.0899,0.056,0.0319,-0.0019,-0.0222,-0.0285,-0.027,-0.0286,-0.0208,-0.0205,-0.0447,-0.0352,0,0,0,0,0]}],[{"header":{"parameterUnit":"m.s-1","parameterCategory":2,"la1":30.2991,"la2":30.254,"lo1":-89.0895,"lo2":-89.0444,"dy":0.0017,"dx":0.0017,"nx":28,"ny":28,"refTime":"2025-09-05T09:00:00:Z","depth":"4","parameterNumber":2,"parameterNumberName":"U-component_of_CURRENTS"},"data":[0,0,0,0,0,0,0,0,0,0,0,0,0,0,0,0,0,0,0,0,0,0,0,0,0,0,0,0,0,0,0,0,0,0,0,0,0,0,0,0,0,0,0,0,0,0,0,0,0,0,0,0,0,0,0,0,0,0,0.1033,0.1034,0,0.1096,0.1097,0.1098,0.1139,0.1139,0.114,0.114,0.1197,0.1198,0.1199,0,0,0,0,0,0,0,0,0,0,0,0,0,0.0958,0.0959,0.1033,0.1034,0.1035,0.1096,0.1097,0.1098,0.1139,0.1139,0.114,0.114,0.1196,0.1198,0.1199,0,0,0,0,0,0,0,0,0,0,0,0,0,0.1001,0.0959,0.1033,0.1064,0.1068,0.1096,0.1097,0.1098,0.1139,0.1139,0.114,0.1141,0.1196,0.1197,0.1199,0.1196,0,0,0.1204,0.1205,0,0,0,0,0,0,0,0,0.0998,0.1003,0.1059,0.1062,0.1066,0.1112,0.1091,0.1131,0.1139,0.111,0.114,0.1141,0.1168,0.1172,0.118,0.1199,0.1202,0.1204,0.1205,0.1206,0.1206,0,0,0,0,0,0,0,0.0995,0.1001,0.1056,0.106,0.1064,0.1079,0.1085,0.1099,0.1133,0.1113,0.1116,0.1126,0.117,0.1179,0.1182,0.1202,0.1204,0.1206,0.1207,0.1207,0.1315,0.1317,0,0,0,0,0,0,0.099,0.0998,0.1054,0.1058,0.1035,0.108,0.1087,0.1095,0.1133,0.114,0.1125,0.1127,0.1176,0.118,0.1184,0.1258,0.1206,0.1208,0.1208,0.1313,0.1315,0.1317,0,0,0,0,0,0,0.0988,0.0994,0.1052,0.1031,0.104,0.108,0.1089,0.1096,0.1134,0.1143,0.115,0.116,0.1176,0.1182,0.122,0.1258,0.1208,0.121,0.1311,0.1314,0.1316,0.1359,0,0,0,0,0,0,0.0986,0.0993,0.1011,0.1031,0.1041,0.1082,0.1089,0.1097,0.1138,0.1143,0.1175,0.1179,0.1177,0.1218,0.1222,0.1259,0.1211,0.1308,0.1312,0.1315,0.1355,0.1362,0.1369,0,0,0,0,0,0.0983,0.1002,0.1011,0.1019,0.1059,0.1082,0.1089,0.1118,0.114,0.1156,0.1183,0.118,0.1243,0.122,0.1225,0.1264,0.1307,0.1311,0.1315,0.1352,0.1361,0.1369,0,0,0,0,0,0,0.0978,0.1008,0.1019,0.1047,0.1069,0.1091,0.1117,0.1136,0.1171,0.1185,0.1195,0.1201,0.1248,0.1253,0.1227,0.1307,0.1278,0.1284,0.1305,0.1314,0.1321,0.1331,0.1212,0,0,0,0,0,0.0984,0.1006,0.1031,0.1053,0.107,0.1099,0.112,0.1138,0.1165,0.1183,0.1207,0.1237,0.1264,0.1286,0.1303,0.1345,0.1347,0.1377,0.1384,0.139,0.1403,0.144,0.1451,0.1331,0.1331,0.1331,0,0,0.0987,0.1007,0.102,0.1054,0.1078,0.1103,0.1114,0.115,0.1175,0.1182,0.1235,0.1258,0.1279,0.1323,0.1347,0.1337,0.1424,0.1395,0.14,0.141,0.1446,0.1457,0.1468,0.1334,0.1333,0.1333,0,0,0.0998,0.1025,0.1048,0.1069,0.1108,0.1124,0.1142,0.118,0.1206,0.1251,0.1267,0.1315,0.1357,0.1381,0.1397,0.1457,0.1454,0.1473,0.1524,0.156,0.157,0.1579,0.1583,0.1592,0.1484,0.1484,0.1484,0,0.1006,0.1031,0.1057,0.1083,0.1109,0.1138,0.1167,0.1192,0.1238,0.1273,0.1275,0.1365,0.1383,0.1443,0.1473,0.1472,0.1486,0.1486,0.1568,0.1577,0.1585,0.1588,0.1597,0.1487,0.1486,0.1486,0.1486,0,0.1021,0.1054,0.1072,0.1112,0.1142,0.1171,0.1207,0.1243,0.1284,0.1321,0.1396,0.142,0.1483,0.1498,0.1509,0.1587,0.1573,0.1564,0.1542,0.16,0.1599,0.1608,0.149,0.1489,0.1489,0.1488,0,0,0.1009,0.1071,0.1082,0.1107,0.1162,0.1185,0.1234,0.1293,0.1342,0.1393,0.1461,0.1523,0.1564,0.1586,0.1605,0.1644,0.1712,0.1646,0.1647,0.1642,0.1781,0.1698,0.1699,0.1724,0.1726,0.1728,0.1751,0,0.1018,0.1067,0.11,0.1151,0.118,0.1226,0.1274,0.1334,0.1387,0.1456,0.1509,0.1585,0.1588,0.1637,0.1676,0.1704,0.1741,0.1705,0.1734,0.1734,0.1646,0.1708,0.1735,0.1757,0.1759,0.1761,0.1762,0,0.1016,0.1055,0.111,0.118,0.1201,0.1243,0.1329,0.1377,0.1476,0.1524,0.1605,0.1653,0.1736,0.1723,0.1796,0.1779,0.1799,0.1805,0.1806,0.1723,0.1668,0.1692,0.1777,0.1776,0.1775,0.1774,0.1773,0,0.0976,0.1055,0.1101,0.1124,0.1213,0.1261,0.132,0.1418,0.1467,0.1589,0.164,0.173,0.1793,0.1827,0.186,0.1849,0.1915,0.1889,0.1822,0.1814,0.186,0.1851,0.1947,0.1947,0.1947,0.1947,0.1947,0,0.0951,0.0988,0.1098,0.1116,0.1189,0.127,0.1353,0.1417,0.1524,0.1585,0.169,0.1733,0.1833,0.1878,0.1884,0.1877,0.1937,0.1844,0.1827,0.1875,0.1867,0.1865,0.1855,0.1948,0.1947,0.1947,0.1947,0,0.0882,0.0955,0.0998,0.1112,0.1166,0.1218,0.1355,0.1399,0.1525,0.1598,0.1648,0.1772,0.1843,0.1896,0.1958,0.1907,0.1905,0.1889,0.1931,0.1913,0.177,0.1762,0.1811,0.1808,0.1806,0.1805,0.1803,0,0.0849,0.0871,0.0975,0.1001,0.1058,0.1165,0.1229,0.1382,0.1428,0.1589,0.1603,0.1743,0.1807,0.181,0.1884,0.1894,0.1881,0.1859,0.1827,0.1784,0.1762,0.1758,0.1753,0.18,0.1799,0.1799,0.1798,0,0.0775,0.0811,0.0836,0.0906,0.0976,0.1049,0.1161,0.1193,0.1358,0.1473,0.1544,0.1611,0.1694,0.1756,0.1797,0.1791,0.1858,0.1837,0.184,0.181,0.1771,0.1751,0.1748,0.1791,0.1792,0.1793,0.1793,0,0.0704,0.0692,0.0738,0.0791,0.0866,0.0922,0.0996,0.1086,0.1183,0.1372,0.1388,0.153,0.1663,0.1702,0.1717,0.1736,0.1717,0.1654,0.1667,0.1676,0.1627,0.1557,0.1511,0,0,0,0,0,0.0643,0.0619,0.063,0.0683,0.0746,0.0819,0.0942,0.1021,0.1191,0.1203,0.1305,0.1377,0.1468,0.1545,0.1542,0.1659,0.1711,0.1647,0.164,0.1751,0.1759,0.1718,0,0,0,0,0,0,0.0588,0.0589,0.0591,0.0608,0.0623,0.0716,0.0793,0.0899,0.0936,0.1096,0.1158,0.1288,0.1397,0.1451,0.1509,0.1534,0.1503,0.1746,0.1743,0.1746,0.1753,0.176,0.1721,0,0,0,0,0]},{"header":{"parameterUnit":"m.s-1","parameterCategory":2,"la1":30.2991,"la2":30.254,"lo1":-89.0895,"lo2":-89.0444,"dy":0.0017,"dx":0.0017,"nx":28,"ny":28,"refTime":"2025-09-05T09:00:00:Z","depth":"4","parameterNumber":3,"parameterNumberName":"V-component_of_CURRENTS"},"data":[0,0,0,0,0,0,0,0,0,0,0,0,0,0,0,0,0,0,0,0,0,0,0,0,0,0,0,0,0,0,0,0,0,0,0,0,0,0,0,0,0,0,0,0,0,0,0,0,0,0,0,0,0,0,0,0,0,0,0.0011,0.0011,0,-0.0006,-0.0006,-0.0006,-0.0031,-0.0032,-0.0032,-0.0033,-0.0082,-0.0083,-0.0084,0,0,0,0,0,0,0,0,0,0,0,0,0,0.001,0.001,0.0011,0.0011,0.0011,-0.0005,-0.0006,-0.0006,-0.0031,-0.0032,-0.0032,-0.0033,-0.0082,-0.0083,-0.0084,0,0,0,0,0,0,0,0,0,0,0,0,0,0.0003,0.001,0.0011,-0.0004,-0.0005,-0.0005,-0.0006,-0.0006,-0.0031,-0.0032,-0.0033,-0.0033,-0.0081,-0.0083,-0.0084,-0.008,0,0,-0.0088,-0.0089,0,0,0,0,0,0,0,0,0.0004,0.0003,-0.0001,-0.0003,-0.0004,-0.0017,-0.0024,-0.0032,-0.0031,-0.0022,-0.0033,-0.0033,-0.0063,-0.0066,-0.0067,-0.0082,-0.0084,-0.0088,-0.0089,-0.009,-0.009,0,0,0,0,0,0,0,0.0004,0.0004,0.0004,-0.0002,-0.0003,-0.0013,-0.0015,-0.0026,-0.0039,-0.0023,-0.0024,-0.0026,-0.0064,-0.0066,-0.0069,-0.0085,-0.0088,-0.009,-0.009,-0.0091,-0.0094,-0.0093,0,0,0,0,0,0,0.0008,0.0004,0.0005,0.0004,-0.0002,-0.0013,-0.0014,-0.0012,-0.0038,-0.0043,-0.0025,-0.0027,-0.0063,-0.0067,-0.007,-0.0055,-0.009,-0.0091,-0.0092,-0.0094,-0.0093,-0.0093,0,0,0,0,0,0,0.0008,0.0008,0.0005,0.0003,0.0002,-0.0012,-0.0009,-0.0012,-0.0019,-0.004,-0.0045,-0.0029,-0.0064,-0.0069,-0.0072,-0.0058,-0.0092,-0.0093,-0.0095,-0.0094,-0.0093,-0.0032,0,0,0,0,0,0,0.0008,0.0009,0.0011,0.0004,0.0003,0.0009,-0.0009,-0.0012,-0.0018,-0.002,-0.0044,-0.0049,-0.0065,-0.007,-0.0073,-0.006,-0.0094,-0.0096,-0.0095,-0.0093,-0.0035,-0.0029,-0.0024,0,0,0,0,0,0.0008,0.0014,0.0011,0.0011,0.0007,0.001,0.0009,-0.0004,-0.0017,-0.0014,-0.0026,-0.0049,-0.0064,-0.007,-0.0075,-0.0062,-0.0097,-0.0095,-0.0094,-0.0037,-0.003,-0.0024,0,0,0,0,0,0,0.0009,0.0012,0.0009,0.0014,0.0014,0.0006,0.0006,-0.0003,-0.001,-0.0015,-0.0038,-0.0043,-0.004,-0.0059,-0.0066,-0.0058,-0.0085,-0.0084,-0.004,-0.0034,-0.0028,-0.0047,-0.0095,0,0,0,0,0,0.0013,0.0021,0.002,0.0024,0.0025,0.0016,0.0014,0.0007,0.0,-0.0005,-0.0018,-0.0032,-0.0035,-0.0042,-0.0049,-0.0047,-0.0104,-0.0042,-0.0036,-0.0031,-0.0049,-0.0122,-0.0126,-0.0087,-0.0087,-0.0087,0,0,0.0012,0.0017,0.0019,0.0025,0.0022,0.0037,0.0013,0.0014,0.0027,-0.0008,0.0002,-0.0013,-0.003,-0.0021,-0.0022,-0.0037,-0.0069,-0.0029,-0.0025,-0.0046,-0.0121,-0.0125,-0.0129,-0.0086,-0.0086,-0.0086,0,0,0.0024,0.0022,0.0036,0.0043,0.0046,0.0047,0.0049,0.0045,0.0043,0.0053,0.0034,0.0023,0.0019,0.0009,0.0004,0.0032,-0.0035,0.0035,0.0045,-0.0024,-0.0029,-0.0034,-0.01,-0.0111,0.0036,0.0036,0.0036,0,0.0022,0.0041,0.0039,0.0058,0.0065,0.0055,0.0072,0.0078,0.0075,0.0062,0.0063,0.0035,0.0033,0.0024,0.0045,0.0044,-0.0013,0.0025,-0.0019,-0.0025,-0.0031,-0.0098,-0.0112,0.0039,0.0038,0.0038,0.0038,0,0.005,0.0064,0.0072,0.0098,0.0107,0.0118,0.0128,0.0129,0.0125,0.0114,0.0098,0.0088,0.0058,0.0073,0.0074,0.0039,0.0008,-0.0002,-0.0039,-0.0032,-0.0102,-0.0117,0.0043,0.0042,0.0041,0.0041,0,0,0.0044,0.0084,0.0085,0.0098,0.0127,0.0131,0.0158,0.0159,0.0144,0.0145,0.0114,0.0131,0.0092,0.0083,0.0073,0.003,-0.0034,0.0001,-0.0004,-0.0071,-0.0201,-0.013,-0.0141,-0.0061,-0.0063,-0.0065,-0.0229,0,0.0062,0.0099,0.0121,0.0151,0.0166,0.0172,0.0191,0.0189,0.0175,0.0144,0.0119,0.0091,0.0107,0.0082,0.0046,-0.0019,-0.0074,0.001,-0.0194,-0.0201,-0.0144,-0.0155,-0.0073,-0.024,-0.0244,-0.0247,-0.0248,0,0.0077,0.01,0.0134,0.016,0.0165,0.0185,0.0178,0.0194,0.0158,0.014,0.0097,0.0061,0.0013,0.0018,-0.0107,-0.006,-0.013,-0.0179,-0.0187,-0.016,-0.0158,-0.0253,-0.0277,-0.0274,-0.0272,-0.027,-0.0269,0,0.0056,0.0102,0.0126,0.014,0.0174,0.0179,0.0192,0.0177,0.0177,0.0116,0.0091,0.0014,-0.0024,-0.0125,-0.0182,-0.0176,-0.0329,-0.0342,-0.0352,-0.0349,-0.0393,-0.0386,-0.0459,-0.0458,-0.0458,-0.0458,-0.0457,0,0.0058,0.0069,0.0114,0.0124,0.0139,0.0163,0.0162,0.0157,0.0139,0.014,0.0078,0.0061,-0.0064,-0.0143,-0.0221,-0.0311,-0.0367,-0.0365,-0.0389,-0.0359,-0.0347,-0.0403,-0.0394,-0.0464,-0.0462,-0.0461,-0.046,0,0.0024,0.0054,0.0082,0.0121,0.0129,0.0137,0.0167,0.0171,0.0147,0.0143,0.0124,0.0061,-0.0032,-0.014,-0.0301,-0.0344,-0.0452,-0.0471,-0.0425,-0.0442,-0.0432,-0.0418,-0.0551,-0.055,-0.0549,-0.0548,-0.0548,0,0.001,0.0023,0.0075,0.0105,0.0125,0.0144,0.017,0.0169,0.0194,0.0171,0.0183,0.0083,0.0041,-0.0133,-0.0255,-0.0435,-0.0433,-0.0514,-0.0481,-0.0433,-0.0444,-0.0431,-0.0419,-0.0546,-0.0546,-0.0546,-0.0546,0,-0.0006,0.0016,0.0055,0.0118,0.0154,0.019,0.0233,0.0243,0.0264,0.0229,0.0237,0.0145,0.0048,-0.0095,-0.0221,-0.0339,-0.0481,-0.0506,-0.0509,-0.0479,-0.0429,-0.0437,-0.0426,-0.0542,-0.0543,-0.0543,-0.0543,0,-0.0005,0.0026,0.0098,0.0151,0.0204,0.0261,0.0259,0.0312,0.0319,0.0308,0.0311,0.0202,0.0122,-0.0045,-0.0154,-0.0268,-0.0311,-0.0356,-0.0368,-0.0373,-0.0247,-0.0153,-0.0216,0,0,0,0,0,0.0007,0.007,0.0134,0.0212,0.0266,0.0289,0.0336,0.0339,0.034,0.0364,0.0344,0.027,0.0105,0.0024,-0.008,-0.0161,-0.0346,-0.0288,-0.0408,-0.0525,-0.0529,-0.0401,0,0,0,0,0,0,0.0031,0.0102,0.0151,0.026,0.031,0.037,0.0393,0.0386,0.0405,0.0387,0.0306,0.0246,0.0084,0.017,-0.008,-0.012,-0.0208,-0.0377,-0.0379,-0.0523,-0.0526,-0.0529,-0.0399,0,0,0,0,0]}]]